| time (UTC) | temp F | wind direction | speed knots | gust knots | rain 1hr in | rain 24hr in | rain mn in | humidity % | barometer mb |
| 20260510022512 | 75 | 175 | 0.9 | 2.6 | 0.00 | 0.00 | 0.00 | 53 | 1027.5 |
| 20260510021439 | 74 | 282 | 1.7 | 2.6 | 0.00 | 0.00 | 0.00 | 53 | 1027.5 |
| 20260510020437 | 74 | 188 | 0.9 | 2.6 | 0.00 | 0.00 | 0.00 | 54 | 1027.8 |
| 20260510015436 | 73 | 240 | 1.7 | 2.6 | 0.00 | 0.00 | 0.00 | 54 | 1027.8 |
| 20260510014403 | 72 | 232 | 0.9 | 2.6 | 0.00 | 0.00 | 0.00 | 55 | 1027.8 |
| 20260510013401 | 73 | 159 | 0.9 | 2.6 | 0.00 | 0.00 | 0.00 | 54 | 1028.2 |
| 20260510012400 | 72 | 355 | 0.9 | 2.6 | 0.00 | 0.00 | 0.00 | 55 | 1028.2 |
| 20260510011358 | 70 | 2 | 0.0 | 2.6 | 0.00 | 0.00 | 0.00 | 58 | 1028.5 |
| 20260510010356 | 69 | 296 | 0.9 | 2.6 | 0.00 | 0.00 | 0.00 | 60 | 1028.5 |
| 20260510005354 | 69 | 266 | 0.9 | 2.6 | 0.00 | 0.00 | 0.00 | 60 | 1028.5 |
| 20260510004353 | 68 | 264 | 0.9 | 1.7 | 0.00 | 0.00 | 0.00 | 61 | 1028.8 |
| 20260510003351 | 66 | 264 | 0.9 | 1.7 | 0.00 | 0.00 | 0.00 | 65 | 1028.8 |
| 20260510002349 | 65 | 151 | 0.9 | 1.7 | 0.00 | 0.00 | 0.00 | 67 | 1028.8 |
| 20260510001348 | 64 | 291 | 0.9 | 2.6 | 0.00 | 0.00 | 0.00 | 68 | 1028.5 |
| 20260510000348 | 63 | 312 | 0.9 | 2.6 | 0.00 | 0.00 | 0.00 | 69 | 1028.5 |
| 20260509235345 | 63 | 260 | 0.9 | 2.6 | 0.00 | 0.00 | 0.00 | 71 | 1028.5 |
| 20260509234343 | 62 | 296 | 0.9 | 1.7 | 0.00 | 0.00 | 0.00 | 72 | 1028.5 |
| 20260509233342 | 62 | 307 | 0.9 | 2.6 | 0.00 | 0.00 | 0.00 | 73 | 1028.5 |
| 20260509232340 | 61 | 255 | 1.7 | 2.6 | 0.00 | 0.00 | 0.00 | 75 | 1028.5 |
| 20260509231339 | 61 | 260 | 0.9 | 2.6 | 0.00 | 0.00 | 0.00 | 76 | 1028.5 |
| 20260509230306 | 60 | 257 | 0.9 | 3.5 | 0.00 | 0.00 | 0.00 | 76 | 1028.5 |
| 20260509225306 | 59 | 225 | 1.7 | 3.5 | 0.00 | 0.00 | 0.00 | 79 | 1028.5 |
| 20260509224303 | 59 | 266 | 0.9 | 3.5 | 0.00 | 0.00 | 0.00 | 80 | 1028.4 |
| 20260509223231 | 58 | 252 | 0.9 | 3.5 | 0.00 | 0.00 | 0.00 | 80 | 1028.4 |
| 20260509222229 | 58 | 310 | 0.9 | 2.6 | 0.00 | 0.00 | 0.00 | 84 | 1028.4 |
| 20260509221228 | 57 | 295 | 0.9 | 2.6 | 0.00 | 0.00 | 0.00 | 85 | 1028.1 |
| 20260509220227 | 56 | 64 | 0.9 | 2.6 | 0.00 | 0.00 | 0.00 | 89 | 1028.1 |
| 20260509215154 | 55 | 332 | 0.9 | 0.9 | 0.00 | 0.00 | 0.00 | 91 | 1028.1 |
| 20260509214152 | 54 | 332 | 0.0 | 0.9 | 0.00 | 0.00 | 0.00 | 92 | 1028.1 |
| 20260509213150 | 53 | 332 | 0.0 | 0.9 | 0.00 | 0.00 | 0.00 | 93 | 1028.1 |
| 20260509212148 | 53 | 330 | 0.0 | 0.9 | 0.00 | 0.00 | 0.00 | 93 | 1027.8 |
| 20260509211147 | 52 | 330 | 0.0 | 1.7 | 0.00 | 0.00 | 0.00 | 93 | 1027.4 |
| 20260509210145 | 51 | 330 | 0.0 | 1.7 | 0.00 | 0.00 | 0.00 | 93 | 1027.4 |
| 20260509205143 | 51 | 330 | 0.9 | 1.7 | 0.00 | 0.00 | 0.00 | 93 | 1027.4 |
| 20260509204142 | 51 | 330 | 0.9 | 0.9 | 0.00 | 0.00 | 0.00 | 93 | 1027.1 |
| 20260509203140 | 51 | 330 | 0.0 | 0.0 | 0.00 | 0.00 | 0.00 | 93 | 1027.1 |
| 20260509202107 | 51 | 330 | 0.0 | 0.0 | 0.00 | 0.00 | 0.00 | 93 | 1027.1 |
| 20260509201106 | 51 | 330 | 0.0 | 0.0 | 0.00 | 0.00 | 0.00 | 92 | 1027.1 |
| 20260509200104 | 51 | 330 | 0.0 | 0.0 | 0.00 | 0.00 | 0.00 | 92 | 1026.8 |
| 20260509195102 | 51 | 330 | 0.0 | 0.0 | 0.00 | 0.00 | 0.00 | 92 | 1026.8 |
| 20260509194101 | 51 | 330 | 0.0 | 0.0 | 0.00 | 0.00 | 0.00 | 92 | 1026.4 |
| 20260509193100 | 51 | 330 | 0.0 | 0.0 | 0.00 | 0.00 | 0.00 | 92 | 1026.4 |
| 20260509192058 | 51 | 330 | 0.0 | 0.9 | 0.00 | 0.00 | 0.00 | 92 | 1026.4 |
| 20260509191057 | 51 | 330 | 0.0 | 0.9 | 0.00 | 0.00 | 0.00 | 92 | 1026.1 |
| 20260509190055 | 51 | 330 | 0.0 | 0.0 | 0.00 | 0.00 | 0.00 | 92 | 1026.1 |
| 20260509185053 | 51 | 330 | 0.0 | 0.9 | 0.00 | 0.00 | 0.00 | 92 | 1025.7 |
| 20260509184051 | 52 | 330 | 0.9 | 0.9 | 0.00 | 0.00 | 0.00 | 92 | 1025.7 |
| 20260509183050 | 52 | 330 | 0.0 | 1.7 | 0.00 | 0.00 | 0.00 | 93 | 1025.7 |
| 20260509182048 | 51 | 330 | 0.9 | 1.7 | 0.00 | 0.00 | 0.00 | 93 | 1025.7 |
| 20260509181047 | 51 | 330 | 0.9 | 2.6 | 0.00 | 0.00 | 0.00 | 93 | 1025.7 |
| 20260509180045 | 51 | 330 | 0.9 | 2.6 | 0.00 | 0.00 | 0.00 | 93 | 1025.4 |
| 20260509175044 | 51 | 86 | 0.0 | 0.9 | 0.00 | 0.00 | 0.00 | 92 | 1025.7 |
| 20260509174042 | 51 | 86 | 0.0 | 0.9 | 0.00 | 0.00 | 0.00 | 93 | 1025.4 |
| 20260509173040 | 51 | 86 | 0.0 | 0.9 | 0.00 | 0.00 | 0.00 | 93 | 1025.4 |
| 20260509172038 | 51 | 86 | 0.0 | 0.0 | 0.00 | 0.00 | 0.00 | 93 | 1025.4 |
| 20260509171006 | 51 | 86 | 0.0 | 0.9 | 0.00 | 0.00 | 0.00 | 93 | 1025.4 |
| 20260509170004 | 51 | 86 | 0.0 | 0.9 | 0.00 | 0.00 | 0.00 | 93 | 1025.4 |
| 20260509165003 | 51 | 86 | 0.0 | 0.9 | 0.00 | 0.00 | 0.00 | 92 | 1025.4 |
| 20260509164001 | 51 | 86 | 0.9 | 0.9 | 0.00 | 0.00 | 0.00 | 92 | 1025.4 |
| 20260509162959 | 52 | 86 | 0.0 | 0.0 | 0.00 | 0.00 | 0.00 | 92 | 1025.4 |
| 20260509161958 | 52 | 86 | 0.0 | 1.7 | 0.00 | 0.00 | 0.00 | 92 | 1025.4 |
| 20260509160925 | 52 | 86 | 0.9 | 1.7 | 0.00 | 0.00 | 0.00 | 92 | 1025.4 |
| 20260509155924 | 52 | 86 | 0.0 | 0.9 | 0.00 | 0.00 | 0.00 | 92 | 1025.4 |
| 20260509154923 | 52 | 86 | 0.0 | 1.7 | 0.00 | 0.00 | 0.00 | 92 | 1025.4 |
| 20260509153921 | 52 | 86 | 0.9 | 1.7 | 0.00 | 0.00 | 0.00 | 92 | 1025.4 |
| 20260509152920 | 52 | 86 | 0.0 | 0.9 | 0.00 | 0.00 | 0.00 | 92 | 1025.8 |
| 20260509151919 | 52 | 86 | 0.0 | 0.9 | 0.00 | 0.00 | 0.00 | 92 | 1025.8 |
| 20260509150917 | 52 | 86 | 0.0 | 1.7 | 0.00 | 0.00 | 0.00 | 92 | 1025.8 |
| 20260509145915 | 52 | 86 | 0.0 | 0.9 | 0.00 | 0.00 | 0.00 | 91 | 1025.8 |
| 20260509144914 | 52 | 86 | 0.0 | 0.9 | 0.00 | 0.00 | 0.00 | 91 | 1025.8 |
| 20260509143913 | 53 | 86 | 0.9 | 0.9 | 0.00 | 0.00 | 0.00 | 91 | 1025.5 |
| 20260509142911 | 53 | 86 | 0.0 | 0.9 | 0.00 | 0.00 | 0.00 | 91 | 1025.8 |
| 20260509141838 | 53 | 86 | 0.9 | 0.9 | 0.00 | 0.00 | 0.00 | 91 | 1025.4 |
| 20260509140836 | 53 | 86 | 0.9 | 0.9 | 0.00 | 0.00 | 0.00 | 91 | 1025.4 |
| 20260509135834 | 53 | 86 | 0.0 | 0.9 | 0.00 | 0.00 | 0.00 | 91 | 1025.8 |
| 20260509134832 | 53 | 86 | 0.0 | 0.9 | 0.00 | 0.00 | 0.00 | 90 | 1025.8 |
| 20260509133831 | 53 | 86 | 0.0 | 0.9 | 0.00 | 0.00 | 0.00 | 91 | 1025.8 |
| 20260509132830 | 53 | 86 | 0.0 | 0.9 | 0.00 | 0.00 | 0.00 | 90 | 1025.8 |
| 20260509131828 | 54 | 86 | 0.0 | 0.9 | 0.00 | 0.00 | 0.00 | 90 | 1025.8 |
| 20260509130827 | 54 | 86 | 0.9 | 0.9 | 0.00 | 0.00 | 0.00 | 89 | 1025.8 |
| 20260509125825 | 54 | 86 | 0.9 | 0.9 | 0.00 | 0.00 | 0.00 | 89 | 1025.8 |
| 20260509124824 | 54 | 86 | 0.0 | 0.9 | 0.00 | 0.00 | 0.00 | 89 | 1025.8 |
| 20260509123822 | 54 | 86 | 0.0 | 0.0 | 0.00 | 0.00 | 0.00 | 89 | 1025.8 |
| 20260509122749 | 54 | 86 | 0.0 | 0.9 | 0.00 | 0.00 | 0.00 | 88 | 1025.8 |
| 20260509121716 | 54 | 86 | 0.0 | 0.9 | 0.00 | 0.00 | 0.00 | 89 | 1025.8 |
| 20260509120643 | 55 | 86 | 0.0 | 0.9 | 0.00 | 0.00 | 0.00 | 88 | 1025.8 |
| 20260509115611 | 55 | 86 | 0.0 | 0.9 | 0.00 | 0.00 | 0.00 | 88 | 1025.8 |
| 20260509114609 | 55 | 86 | 0.0 | 0.9 | 0.00 | 0.00 | 0.00 | 87 | 1025.8 |
| 20260509113607 | 55 | 86 | 0.0 | 0.9 | 0.00 | 0.00 | 0.00 | 87 | 1025.4 |
| 20260509112606 | 55 | 86 | 0.0 | 0.9 | 0.00 | 0.00 | 0.00 | 87 | 1025.4 |
| 20260509111605 | 56 | 86 | 0.0 | 0.9 | 0.00 | 0.00 | 0.00 | 86 | 1025.4 |
| 20260509110603 | 56 | 86 | 0.0 | 0.0 | 0.00 | 0.00 | 0.00 | 85 | 1025.4 |
| 20260509105602 | 56 | 86 | 0.0 | 0.0 | 0.00 | 0.00 | 0.00 | 85 | 1025.4 |
| 20260509104600 | 56 | 86 | 0.0 | 0.0 | 0.00 | 0.00 | 0.00 | 84 | 1025.4 |
| 20260509103559 | 57 | 86 | 0.0 | 0.0 | 0.00 | 0.00 | 0.00 | 84 | 1025.4 |
| 20260509102557 | 57 | 86 | 0.0 | 0.0 | 0.00 | 0.00 | 0.00 | 84 | 1025.4 |
| 20260509101556 | 57 | 86 | 0.0 | 0.0 | 0.00 | 0.00 | 0.00 | 83 | 1025.1 |
| 20260509100555 | 58 | 86 | 0.0 | 0.0 | 0.00 | 0.00 | 0.00 | 82 | 1025.1 |
| 20260509095522 | 58 | 86 | 0.0 | 0.0 | 0.00 | 0.00 | 0.00 | 82 | 1025.1 |
| 20260509094520 | 58 | 86 | 0.0 | 0.0 | 0.00 | 0.00 | 0.00 | 81 | 1025.1 |
| 20260509093519 | 58 | 86 | 0.0 | 0.9 | 0.00 | 0.00 | 0.00 | 79 | 1024.7 |
| 20260509092517 | 59 | 86 | 0.0 | 0.9 | 0.00 | 0.00 | 0.00 | 77 | 1024.7 |
| 20260509091515 | 59 | 86 | 0.0 | 0.0 | 0.00 | 0.00 | 0.00 | 76 | 1024.7 |
| 20260509090513 | 60 | 86 | 0.0 | 1.7 | 0.00 | 0.00 | 0.00 | 74 | 1024.4 |
| 20260509085441 | 60 | 86 | 0.0 | 1.7 | 0.00 | 0.00 | 0.00 | 72 | 1024.4 |
| 20260509084440 | 61 | 86 | 0.0 | 0.0 | 0.00 | 0.00 | 0.00 | 71 | 1024.4 |
| 20260509083336 | 61 | 86 | 0.0 | 0.0 | 0.00 | 0.00 | 0.00 | 69 | 1024.1 |
| 20260509082334 | 62 | 86 | 0.0 | 0.0 | 0.00 | 0.00 | 0.00 | 67 | 1024.1 |
| 20260509081333 | 63 | 86 | 0.0 | 2.6 | 0.00 | 0.00 | 0.00 | 66 | 1024.1 |
| 20260509080331 | 63 | 86 | 0.0 | 2.6 | 0.00 | 0.00 | 0.00 | 65 | 1023.7 |
| 20260509075330 | 64 | 86 | 0.0 | 0.9 | 0.00 | 0.00 | 0.00 | 64 | 1023.7 |
| 20260509074329 | 64 | 86 | 0.0 | 1.7 | 0.00 | 0.00 | 0.00 | 64 | 1023.7 |
| 20260509073327 | 64 | 86 | 0.0 | 6.1 | 0.00 | 0.00 | 0.00 | 64 | 1023.4 |
| 20260509072325 | 64 | 90 | 2.6 | 6.1 | 0.00 | 0.00 | 0.00 | 63 | 1023.4 |
| 20260509071323 | 65 | 81 | 1.7 | 5.2 | 0.00 | 0.00 | 0.00 | 64 | 1023.4 |
| 20260509070321 | 65 | 85 | 1.7 | 5.2 | 0.00 | 0.00 | 0.00 | 63 | 1023.4 |
| 20260509065248 | 65 | 118 | 1.7 | 6.1 | 0.00 | 0.00 | 0.00 | 62 | 1023.1 |
| 20260509064246 | 65 | 87 | 1.7 | 6.1 | 0.00 | 0.00 | 0.00 | 63 | 1023.1 |
| 20260509063245 | 66 | 105 | 1.7 | 6.1 | 0.00 | 0.00 | 0.00 | 63 | 1022.7 |
| 20260509062243 | 66 | 111 | 1.7 | 4.3 | 0.00 | 0.00 | 0.00 | 64 | 1022.7 |
| 20260509061241 | 66 | 115 | 2.6 | 5.2 | 0.00 | 0.00 | 0.00 | 60 | 1022.7 |
| 20260509060240 | 66 | 102 | 1.7 | 7.0 | 0.00 | 0.00 | 0.00 | 60 | 1022.7 |
| 20260509055238 | 66 | 85 | 3.5 | 7.0 | 0.00 | 0.00 | 0.00 | 60 | 1022.4 |
| 20260509054237 | 67 | 144 | 1.7 | 7.8 | 0.00 | 0.00 | 0.00 | 57 | 1022.4 |
| 20260509053205 | 67 | 130 | 2.6 | 7.8 | 0.00 | 0.00 | 0.00 | 56 | 1022.4 |
| 20260509052203 | 67 | 111 | 0.9 | 7.0 | 0.00 | 0.00 | 0.00 | 57 | 1022.4 |
| 20260509051202 | 67 | 131 | 1.7 | 7.8 | 0.00 | 0.00 | 0.00 | 57 | 1022.4 |
| 20260509050200 | 68 | 96 | 2.6 | 7.8 | 0.00 | 0.00 | 0.00 | 55 | 1022.4 |
| 20260509045158 | 69 | 80 | 2.6 | 6.1 | 0.00 | 0.00 | 0.00 | 54 | 1022.1 |
| 20260509044156 | 69 | 130 | 1.7 | 5.2 | 0.00 | 0.00 | 0.00 | 53 | 1022.1 |
| 20260509043155 | 69 | 119 | 1.7 | 7.0 | 0.00 | 0.00 | 0.00 | 54 | 1022.1 |
| 20260509042153 | 70 | 119 | 1.7 | 7.0 | 0.00 | 0.00 | 0.00 | 54 | 1022.1 |
| 20260509041121 | 70 | 111 | 1.7 | 6.1 | 0.00 | 0.00 | 0.00 | 51 | 1022.1 |
| 20260509040120 | 70 | 111 | 2.6 | 3.5 | 0.00 | 0.00 | 0.00 | 51 | 1022.1 |
| 20260509035047 | 70 | 100 | 0.9 | 2.6 | 0.00 | 0.00 | 0.00 | 51 | 1022.1 |
| 20260509034045 | 70 | 130 | 0.9 | 4.3 | 0.00 | 0.00 | 0.00 | 52 | 1022.1 |
| 20260509033044 | 70 | 96 | 1.7 | 7.0 | 0.00 | 0.00 | 0.00 | 51 | 1022.4 |
| 20260509032011 | 70 | 118 | 1.7 | 6.1 | 0.00 | 0.00 | 0.00 | 53 | 1022.4 |
| 20260509030938 | 70 | 114 | 1.7 | 6.1 | 0.00 | 0.00 | 0.00 | 52 | 1022.4 |
| 20260509025937 | 70 | 95 | 1.7 | 4.3 | 0.00 | 0.00 | 0.00 | 51 | 1022.4 |
| 20260509024935 | 72 | 90 | 0.9 | 5.2 | 0.00 | 0.00 | 0.00 | 51 | 1022.8 |
| 20260509023933 | 73 | 162 | 0.9 | 2.6 | 0.00 | 0.00 | 0.00 | 46 | 1022.8 |
| 20260509022932 | 73 | 174 | 0.9 | 2.6 | 0.00 | 0.00 | 0.00 | 44 | 1022.8 |